Time,TemperatureF,DewpointF,PressureIn,WindDirection,WindDirectionDegrees,WindSpeedMPH,WindSpeedGustMPH,Humidity,HourlyPrecipIn,Conditions,Clouds,dailyrainin,SoftwareType,DateUTC
2013-03-09 00:01:00,62.2,59.2,29.98,SE,141,8.1,8.1,90,0.00,RA,,0.00,WeatherDisplay:10.37,2013-03-09 06:01:00,
2013-03-09 00:06:00,62.1,59.1,29.98,SE,138,6.9,6.9,90,0.00,RA,,0.00,WeatherDisplay:10.37,2013-03-09 06:06:00,
2013-03-09 00:11:00,61.9,58.9,29.98,SE,137,9.2,9.2,90,0.00,CLR,,0.00,WeatherDisplay:10.37,2013-03-09 06:11:00,
2013-03-09 00:15:00,61.8,59.1,29.97,SE,132,4.6,4.6,91,0.00,CLR,,0.00,WeatherDisplay:10.37,2013-03-09 06:15:00,
2013-03-09 00:20:00,61.6,58.9,29.97,SE,132,5.8,5.8,91,0.00,CLR,,0.00,WeatherDisplay:10.37,2013-03-09 06:20:00,
2013-03-09 00:25:00,61.5,58.8,29.97,SE,134,6.9,6.9,91,0.00,CLR,,0.00,WeatherDisplay:10.37,2013-03-09 06:25:00,
2013-03-09 00:30:00,61.4,59.1,29.97,SE,134,6.9,6.9,92,0.00,CLR,,0.00,WeatherDisplay:10.37,2013-03-09 06:30:00,
2013-03-09 00:35:00,61.4,59.1,29.97,SE,134,4.6,4.6,92,0.00,CLR,,0.00,WeatherDisplay:10.37,2013-03-09 06:35:00,
2013-03-09 00:40:00,61.3,59.0,29.96,SE,134,4.0,4.0,92,0.00,CLR,,0.00,WeatherDisplay:10.37,2013-03-09 06:40:00,
2013-03-09 00:45:00,61.3,59.0,29.96,SE,134,5.8,5.8,92,0.00,CLR,,0.00,WeatherDisplay:10.37,2013-03-09 06:45:00,
2013-03-09 00:50:00,61.2,58.9,29.96,SE,134,5.8,5.8,92,0.00,CLR,,0.00,WeatherDisplay:10.37,2013-03-09 06:50:00,
2013-03-09 00:55:00,61.2,58.9,29.96,SE,134,6.9,6.9,92,0.00,CLR,,0.00,WeatherDisplay:10.37,2013-03-09 06:55:00,
2013-03-09 01:00:00,61.2,58.9,29.96,SE,132,5.8,5.8,92,0.00,CLR,,0.00,WeatherDisplay:10.37,2013-03-09 07:00:00,
2013-03-09 01:05:00,61.2,58.9,29.95,SE,132,4.6,4.6,92,0.00,CLR,,0.00,WeatherDisplay:10.37,2013-03-09 07:05:00,
2013-03-09 01:10:00,61.2,58.9,29.95,SE,132,4.6,4.6,92,0.00,CLR,,0.00,WeatherDisplay:10.37,2013-03-09 07:10:00,
2013-03-09 01:15:00,61.1,58.8,29.95,SE,132,4.6,4.6,92,0.00,CLR,,0.00,WeatherDisplay:10.37,2013-03-09 07:15:00,
2013-03-09 01:20:00,61.2,58.9,29.94,SE,132,0.0,0.0,92,0.00,CLR,,0.00,WeatherDisplay:10.37,2013-03-09 07:20:00,
2013-03-09 01:25:00,61.1,58.8,29.94,SE,132,3.5,0.0,92,0.00,CLR,,0.00,WeatherDisplay:10.37,2013-03-09 07:25:00,
2013-03-09 01:30:00,61.1,59.1,29.94,SE,132,6.9,6.9,93,0.00,CLR,,0.00,WeatherDisplay:10.37,2013-03-09 07:30:00,
2013-03-09 01:35:00,61.2,59.2,29.93,SE,132,10.0,10.0,93,0.00,CLR,,0.00,WeatherDisplay:10.37,2013-03-09 07:35:00,
2013-03-09 01:40:00,61.2,59.2,29.93,SE,133,5.8,5.8,93,0.00,CLR,,0.00,WeatherDisplay:10.37,2013-03-09 07:40:00,
2013-03-09 01:45:00,61.2,59.2,29.93,SE,135,4.6,4.6,93,0.00,CLR,,0.00,WeatherDisplay:10.37,2013-03-09 07:45:00,
2013-03-09 01:50:00,61.2,59.2,29.93,SE,137,6.9,6.9,93,0.00,CLR,,0.00,WeatherDisplay:10.37,2013-03-09 07:50:00,
2013-03-09 01:55:00,61.3,59.3,29.93,SE,138,9.2,9.2,93,0.00,CLR,,0.00,WeatherDisplay:10.37,2013-03-09 07:55:00,
2013-03-09 02:00:00,61.4,59.4,29.92,SE,142,3.5,3.5,93,0.00,CLR,,0.00,WeatherDisplay:10.37,2013-03-09 08:00:00,
2013-03-09 02:05:00,61.5,59.5,29.92,SE,140,5.8,5.8,93,0.00,CLR,,0.00,WeatherDisplay:10.37,2013-03-09 08:05:00,
2013-03-09 02:10:00,61.6,59.6,29.91,SE,143,10.4,10.4,93,0.00,CLR,,0.00,WeatherDisplay:10.37,2013-03-09 08:10:00,
2013-03-09 02:15:00,61.7,59.7,29.91,SSE,147,3.5,3.5,93,0.00,CLR,,0.00,WeatherDisplay:10.37,2013-03-09 08:15:00,
2013-03-09 02:20:00,61.8,59.8,29.91,SE,144,3.5,5.4,93,0.00,CLR,,0.00,WeatherDisplay:10.37,2013-03-09 08:20:00,
2013-03-09 02:25:00,61.9,59.9,29.91,SE,145,6.9,6.9,93,0.00,CLR,,0.00,WeatherDisplay:10.37,2013-03-09 08:25:00,
2013-03-09 02:30:00,62.0,60.0,29.91,SSE,150,5.8,5.8,93,0.00,CLR,,0.00,WeatherDisplay:10.37,2013-03-09 08:30:00,
2013-03-09 02:35:00,62.0,60.0,29.91,SSE,157,10.4,10.4,93,0.00,CLR,,0.00,WeatherDisplay:10.37,2013-03-09 08:35:00,
2013-03-09 02:40:00,62.1,60.1,29.90,SSE,165,16.1,16.1,93,0.00,CLR,,0.00,WeatherDisplay:10.37,2013-03-09 08:40:00,
2013-03-09 02:45:00,62.2,59.8,29.90,SE,140,11.5,11.5,92,0.00,CLR,,0.00,WeatherDisplay:10.37,2013-03-09 08:45:00,
2013-03-09 02:50:00,62.3,59.9,29.90,SE,139,12.7,12.7,92,0.00,CLR,,0.00,WeatherDisplay:10.37,2013-03-09 08:50:00,
2013-03-09 02:55:00,62.3,59.9,29.90,SE,136,9.2,9.2,92,0.00,CLR,,0.00,WeatherDisplay:10.37,2013-03-09 08:55:00,
2013-03-09 03:00:00,62.4,60.0,29.90,SSE,148,13.8,13.8,92,0.00,CLR,,0.00,WeatherDisplay:10.37,2013-03-09 09:00:00,
2013-03-09 03:05:00,62.5,60.1,29.89,SSE,153,6.9,6.9,92,0.00,CLR,,0.00,WeatherDisplay:10.37,2013-03-09 09:05:00,
2013-03-09 03:10:00,62.5,60.1,29.89,SE,141,12.7,12.7,92,0.00,CLR,,0.00,WeatherDisplay:10.37,2013-03-09 09:10:00,
2013-03-09 03:15:00,62.6,60.2,29.89,SSE,164,9.2,9.2,92,0.00,CLR,,0.00,WeatherDisplay:10.37,2013-03-09 09:15:00,
2013-03-09 03:20:00,62.7,60.3,29.88,SSE,158,15.0,15.0,92,0.00,CLR,,0.00,WeatherDisplay:10.37,2013-03-09 09:20:00,
2013-03-09 03:25:00,62.7,60.3,29.88,SSE,151,11.5,11.5,92,0.00,CLR,,0.00,WeatherDisplay:10.37,2013-03-09 09:25:00,
2013-03-09 03:30:00,62.8,60.4,29.88,SSE,157,9.2,9.2,92,0.00,CLR,,0.00,WeatherDisplay:10.37,2013-03-09 09:30:00,
2013-03-09 03:35:00,62.8,60.4,29.88,SSE,148,11.5,11.5,92,0.00,CLR,,0.00,WeatherDisplay:10.37,2013-03-09 09:35:00,
2013-03-09 03:40:00,62.8,60.4,29.88,SSE,157,11.5,11.5,92,0.00,CLR,,0.00,WeatherDisplay:10.37,2013-03-09 09:40:00,
2013-03-09 03:45:00,62.8,60.7,29.87,SSE,155,9.2,9.2,93,0.00,CLR,,0.00,WeatherDisplay:10.37,2013-03-09 09:45:00,
2013-03-09 03:50:00,62.7,60.6,29.87,SSE,161,12.7,12.7,93,0.00,CLR,,0.00,WeatherDisplay:10.37,2013-03-09 09:50:00,
2013-03-09 03:55:00,62.8,60.7,29.87,SSE,150,11.5,11.5,93,0.00,CLR,,0.00,WeatherDisplay:10.37,2013-03-09 09:55:00,
2013-03-09 04:00:00,62.8,60.7,29.87,SSE,155,15.0,15.0,93,0.00,CLR,,0.00,WeatherDisplay:10.37,2013-03-09 10:00:00,
2013-03-09 04:05:00,62.8,60.7,29.86,SE,144,10.4,10.4,93,0.00,CLR,,0.00,WeatherDisplay:10.37,2013-03-09 10:05:00,
2013-03-09 04:10:00,62.8,60.7,29.86,SE,142,9.2,9.2,93,0.01,RA,,0.01,WeatherDisplay:10.37,2013-03-09 10:10:00,
2013-03-09 04:15:00,62.8,60.7,29.86,SE,145,6.9,6.9,93,0.01,RA,,0.01,WeatherDisplay:10.37,2013-03-09 10:15:00,
2013-03-09 04:20:00,62.8,60.7,29.86,SSE,150,6.9,6.9,93,0.01,CLR,,0.01,WeatherDisplay:10.37,2013-03-09 10:20:00,
2013-03-09 04:25:00,62.8,60.7,29.86,SSE,155,9.2,9.2,93,0.01,CLR,,0.01,WeatherDisplay:10.37,2013-03-09 10:25:00,
2013-03-09 04:30:00,62.9,61.1,29.86,SSE,161,6.9,7.3,94,0.01,CLR,,0.01,WeatherDisplay:10.37,2013-03-09 10:30:00,
2013-03-09 04:35:00,62.9,61.1,29.86,SSE,153,10.4,10.4,94,0.01,CLR,,0.01,WeatherDisplay:10.37,2013-03-09 10:35:00,
2013-03-09 04:40:00,62.9,61.1,29.86,SSE,154,11.5,11.5,94,0.01,CLR,,0.01,WeatherDisplay:10.37,2013-03-09 10:40:00,
2013-03-09 04:45:00,62.9,61.1,29.86,SSE,149,12.7,12.7,94,0.01,CLR,,0.01,WeatherDisplay:10.37,2013-03-09 10:45:00,
2013-03-09 04:50:00,63.0,61.2,29.86,SSE,150,9.2,9.2,94,0.01,CLR,,0.01,WeatherDisplay:10.37,2013-03-09 10:50:00,
2013-03-09 04:55:00,63.0,61.2,29.86,SE,143,9.2,9.2,94,0.01,CLR,,0.01,WeatherDisplay:10.37,2013-03-09 10:55:00,
2013-03-09 05:00:00,63.0,61.2,29.86,SE,144,11.5,11.5,94,0.01,CLR,,0.01,WeatherDisplay:10.37,2013-03-09 11:00:00,
2013-03-09 05:05:00,63.0,61.2,29.85,SSE,156,10.4,10.4,94,0.01,CLR,,0.01,WeatherDisplay:10.37,2013-03-09 11:05:00,
2013-03-09 05:10:00,63.0,61.2,29.85,SSE,160,9.2,9.2,94,0.01,RA,,0.02,WeatherDisplay:10.37,2013-03-09 11:10:00,
2013-03-09 05:15:00,63.1,61.3,29.86,SE,136,11.0,11.0,94,0.01,RA,,0.02,WeatherDisplay:10.37,2013-03-09 11:15:00,
2013-03-09 05:20:00,63.1,61.3,29.85,SE,142,11.5,11.5,94,0.01,,,0.02,WeatherDisplay:10.37,2013-03-09 11:20:00,
2013-03-09 05:25:00,63.1,61.3,29.85,SSE,150,11.5,11.5,94,0.01,CLR,,0.02,WeatherDisplay:10.37,2013-03-09 11:25:00,
2013-03-09 05:30:00,63.1,61.3,29.85,SSE,152,11.5,11.5,94,0.01,CLR,,0.02,WeatherDisplay:10.37,2013-03-09 11:30:00,
2013-03-09 05:35:00,63.1,61.3,29.85,SSE,159,13.8,13.8,94,0.01,CLR,,0.03,WeatherDisplay:10.37,2013-03-09 11:35:00,
2013-03-09 05:40:00,63.1,61.3,29.85,SE,140,12.7,12.7,94,0.02,RA,,0.03,WeatherDisplay:10.37,2013-03-09 11:40:00,
2013-03-09 05:45:00,63.2,61.4,29.85,SE,140,12.7,12.7,94,0.02,RA,,0.03,WeatherDisplay:10.37,2013-03-09 11:45:00,
2013-03-09 05:50:00,63.2,61.4,29.85,SSE,153,10.4,10.4,94,0.02,CLR,,0.03,WeatherDisplay:10.37,2013-03-09 11:50:00,
2013-03-09 05:55:00,63.2,61.4,29.85,SE,134,5.8,5.8,94,0.02,CLR,,0.03,WeatherDisplay:10.37,2013-03-09 11:55:00,
2013-03-09 06:00:00,63.2,61.4,29.86,SE,145,13.8,13.8,94,0.02,CLR,,0.03,WeatherDisplay:10.37,2013-03-09 12:00:00,
2013-03-09 06:05:00,63.2,61.4,29.86,SSE,148,6.9,6.9,94,0.02,CLR,,0.03,WeatherDisplay:10.37,2013-03-09 12:05:00,
2013-03-09 06:10:00,63.3,61.5,29.86,SE,140,15.0,15.0,94,0.02,RA,,0.05,WeatherDisplay:10.37,2013-03-09 12:10:00,
2013-03-09 06:15:00,63.3,61.5,29.86,SSE,157,13.8,13.8,94,0.02,RA,,0.05,WeatherDisplay:10.37,2013-03-09 12:15:00,
2013-03-09 06:20:00,63.3,61.5,29.86,SE,145,12.7,12.7,94,0.02,,,0.05,WeatherDisplay:10.37,2013-03-09 12:20:00,
2013-03-09 06:25:00,63.4,61.6,29.86,SE,142,11.5,11.5,94,0.02,CLR,,0.05,WeatherDisplay:10.37,2013-03-09 12:25:00,
2013-03-09 06:30:00,63.4,61.6,29.86,SSE,156,12.7,12.7,94,0.02,CLR,,0.05,WeatherDisplay:10.37,2013-03-09 12:30:00,
2013-03-09 06:35:00,63.4,61.6,29.86,SSE,149,6.9,6.9,94,0.03,RA,,0.06,WeatherDisplay:10.37,2013-03-09 12:35:00,
2013-03-09 06:40:00,63.4,61.6,29.87,SE,146,9.2,9.2,94,0.02,RA,,0.06,WeatherDisplay:10.37,2013-03-09 12:40:00,
2013-03-09 06:45:00,63.4,61.6,29.87,SE,144,6.9,6.9,94,0.02,,,0.06,WeatherDisplay:10.37,2013-03-09 12:45:00,
2013-03-09 06:50:00,63.5,61.7,29.86,SSE,152,10.4,10.4,94,0.02,CLR,,0.06,WeatherDisplay:10.37,2013-03-09 12:50:00,
2013-03-09 06:55:00,63.5,62.0,29.87,SSE,167,11.5,11.5,95,0.03,RA,,0.07,WeatherDisplay:10.37,2013-03-09 12:55:00,
2013-03-09 07:00:00,63.5,62.0,29.87,SSE,157,6.9,6.9,95,0.03,RA,,0.07,WeatherDisplay:10.37,2013-03-09 13:00:00,
2013-03-09 07:05:00,63.5,62.0,29.86,SSE,155,8.1,8.1,95,0.03,,,0.07,WeatherDisplay:10.37,2013-03-09 13:05:00,
2013-03-09 07:10:00,63.5,62.0,29.87,SSE,161,9.2,9.2,95,0.02,CLR,,0.07,WeatherDisplay:10.37,2013-03-09 13:10:00,
2013-03-09 07:15:00,63.5,62.0,29.86,SSE,159,12.7,12.7,95,0.02,CLR,,0.07,WeatherDisplay:10.37,2013-03-09 13:15:00,
2013-03-09 07:20:00,63.5,62.0,29.86,SSE,153,11.5,11.5,95,0.03,RA,,0.08,WeatherDisplay:10.37,2013-03-09 13:20:00,
2013-03-09 07:25:00,63.5,62.0,29.86,SE,146,11.5,11.5,95,0.03,RA,,0.08,WeatherDisplay:10.37,2013-03-09 13:25:00,
2013-03-09 07:30:00,63.5,62.0,29.86,SE,146,6.9,6.9,95,0.03,CLR,,0.08,WeatherDisplay:10.37,2013-03-09 13:30:00,
2013-03-09 07:35:00,63.5,62.0,29.87,SE,138,11.5,11.5,95,0.02,CLR,,0.08,WeatherDisplay:10.37,2013-03-09 13:35:00,
2013-03-09 07:40:00,63.5,62.0,29.87,SSE,150,16.1,16.1,95,0.02,CLR,,0.08,WeatherDisplay:10.37,2013-03-09 13:40:00,
2013-03-09 07:45:00,63.5,62.0,29.87,SSE,148,11.5,11.5,95,0.02,CLR,,0.08,WeatherDisplay:10.37,2013-03-09 13:45:00,
2013-03-09 07:50:00,63.5,62.0,29.87,SE,146,11.5,11.5,95,0.02,CLR,,0.08,WeatherDisplay:10.37,2013-03-09 13:50:00,
2013-03-09 07:55:00,63.5,62.0,29.87,SSE,155,10.4,10.4,95,0.01,CLR,,0.08,WeatherDisplay:10.37,2013-03-09 13:55:00,
2013-03-09 08:00:00,63.6,62.1,29.87,SE,142,13.8,13.8,95,0.01,CLR,,0.08,WeatherDisplay:10.37,2013-03-09 14:00:00,
2013-03-09 08:05:00,63.6,62.1,29.87,SE,139,10.4,10.4,95,0.01,CLR,,0.09,WeatherDisplay:10.37,2013-03-09 14:05:00,
2013-03-09 08:10:00,63.6,62.1,29.87,SE,125,13.8,13.8,95,0.02,RA,,0.09,WeatherDisplay:10.37,2013-03-09 14:10:00,
2013-03-09 08:15:00,63.6,62.1,29.87,SE,137,11.5,11.5,95,0.02,RA,,0.09,WeatherDisplay:10.37,2013-03-09 14:15:00,
2013-03-09 08:20:00,63.6,62.1,29.87,SE,134,11.5,11.5,95,0.01,CLR,,0.09,WeatherDisplay:10.37,2013-03-09 14:20:00,
2013-03-09 08:25:00,63.6,62.1,29.87,SSE,148,13.8,13.8,95,0.01,CLR,,0.09,WeatherDisplay:10.37,2013-03-09 14:25:00,
2013-03-09 08:30:00,63.6,62.1,29.87,SSE,147,13.8,13.8,95,0.01,CLR,,0.09,WeatherDisplay:10.37,2013-03-09 14:30:00,
2013-03-09 08:35:00,63.6,62.1,29.87,SSE,153,11.5,11.5,95,0.01,CLR,,0.09,WeatherDisplay:10.37,2013-03-09 14:35:00,
2013-03-09 08:40:00,63.7,62.2,29.87,SSE,167,15.0,15.0,95,0.01,CLR,,0.09,WeatherDisplay:10.37,2013-03-09 14:40:00,
2013-03-09 08:45:00,63.7,62.2,29.87,SE,145,11.5,11.5,95,0.02,RA,,0.10,WeatherDisplay:10.37,2013-03-09 14:45:00,
2013-03-09 08:50:00,63.7,62.2,29.87,SSE,164,12.7,12.7,95,0.02,RA,,0.10,WeatherDisplay:10.37,2013-03-09 14:50:00,
2013-03-09 08:55:00,63.7,62.2,29.87,SE,133,16.1,16.1,95,0.02,,,0.10,WeatherDisplay:10.37,2013-03-09 14:55:00,
2013-03-09 09:00:00,63.7,62.2,29.87,SSE,157,11.5,11.5,95,0.02,CLR,,0.10,WeatherDisplay:10.37,2013-03-09 15:00:00,
2013-03-09 09:05:00,63.7,62.2,29.87,SSE,156,11.5,11.5,95,0.02,CLR,,0.10,WeatherDisplay:10.37,2013-03-09 15:05:00,
2013-03-09 09:10:00,63.7,62.2,29.86,SE,145,9.2,9.2,95,0.01,CLR,,0.10,WeatherDisplay:10.37,2013-03-09 15:10:00,
2013-03-09 09:15:00,63.7,62.2,29.86,SE,132,11.5,11.5,95,0.02,RA,,0.11,WeatherDisplay:10.37,2013-03-09 15:15:00,
2013-03-09 09:20:00,63.7,62.2,29.86,SSE,165,15.0,15.0,95,0.02,RA,,0.11,WeatherDisplay:10.37,2013-03-09 15:20:00,
2013-03-09 09:25:00,63.7,62.2,29.87,SSE,152,9.2,9.2,95,0.02,CLR,,0.11,WeatherDisplay:10.37,2013-03-09 15:25:00,
2013-03-09 09:30:00,63.7,62.2,29.86,SSE,153,13.8,13.8,95,0.02,CLR,,0.11,WeatherDisplay:10.37,2013-03-09 15:30:00,
2013-03-09 09:35:00,63.7,62.2,29.86,SE,146,15.0,15.0,95,0.02,CLR,,0.11,WeatherDisplay:10.37,2013-03-09 15:35:00,
2013-03-09 09:40:00,63.7,62.2,29.86,SSE,165,18.4,18.4,95,0.02,CLR,,0.11,WeatherDisplay:10.37,2013-03-09 15:40:00,
2013-03-09 09:45:00,63.7,62.2,29.86,SSE,148,5.8,5.8,95,0.01,CLR,,0.11,WeatherDisplay:10.37,2013-03-09 15:45:00,
2013-03-09 09:50:00,63.8,62.3,29.85,SSE,152,17.3,17.3,95,0.01,CLR,,0.11,WeatherDisplay:10.37,2013-03-09 15:50:00,
2013-03-09 09:55:00,63.8,62.3,29.85,SSE,153,12.7,12.7,95,0.02,RA,,0.13,WeatherDisplay:10.37,2013-03-09 15:55:00,
2013-03-09 10:00:00,63.8,62.3,29.85,SSE,148,11.0,11.0,95,0.02,RA,,0.13,WeatherDisplay:10.37,2013-03-09 16:00:00,
2013-03-09 10:05:00,63.8,62.3,29.85,SSE,165,10.4,10.4,95,0.02,CLR,,0.13,WeatherDisplay:10.37,2013-03-09 16:05:00,
2013-03-09 10:10:00,63.9,62.4,29.84,SSE,156,12.7,12.7,95,0.02,CLR,,0.13,WeatherDisplay:10.37,2013-03-09 16:10:00,
2013-03-09 10:15:00,63.9,62.4,29.84,SSE,153,10.4,10.4,95,0.01,CLR,,0.13,WeatherDisplay:10.37,2013-03-09 16:15:00,
2013-03-09 10:20:00,64.0,62.5,29.84,SSE,159,9.2,9.2,95,0.01,CLR,,0.13,WeatherDisplay:10.37,2013-03-09 16:20:00,
2013-03-09 10:25:00,64.0,62.5,29.84,SSE,160,11.5,11.5,95,0.01,CLR,,0.13,WeatherDisplay:10.37,2013-03-09 16:25:00,
2013-03-09 10:30:00,64.1,62.6,29.84,SSE,157,11.5,11.5,95,0.01,CLR,,0.13,WeatherDisplay:10.37,2013-03-09 16:30:00,
2013-03-09 10:35:00,64.2,62.7,29.84,SSE,164,6.9,6.9,95,0.01,CLR,,0.13,WeatherDisplay:10.37,2013-03-09 16:35:00,
2013-03-09 10:40:00,64.3,62.8,29.84,SSE,151,11.5,11.5,95,0.01,CLR,,0.13,WeatherDisplay:10.37,2013-03-09 16:40:00,
2013-03-09 10:45:00,64.3,62.8,29.84,SE,146,9.2,9.2,95,0.01,CLR,,0.13,WeatherDisplay:10.37,2013-03-09 16:45:00,
2013-03-09 10:50:00,64.4,62.9,29.84,SSE,150,13.8,13.8,95,0.01,CLR,,0.13,WeatherDisplay:10.37,2013-03-09 16:50:00,
2013-03-09 10:55:00,64.4,62.9,29.83,SSE,148,5.8,5.8,95,0.00,CLR,,0.13,WeatherDisplay:10.37,2013-03-09 16:55:00,
2013-03-09 11:00:00,64.5,63.0,29.83,SE,140,11.5,11.5,95,0.00,CLR,,0.13,WeatherDisplay:10.37,2013-03-09 17:00:00,
2013-03-09 11:05:00,64.5,63.0,29.83,South,169,6.9,6.9,95,0.00,CLR,,0.13,WeatherDisplay:10.37,2013-03-09 17:05:00,
2013-03-09 11:10:00,64.6,63.1,29.83,South,186,10.4,10.4,95,0.00,CLR,,0.13,WeatherDisplay:10.37,2013-03-09 17:10:00,
2013-03-09 11:15:00,64.7,63.2,29.83,SSE,149,6.9,6.9,95,0.00,CLR,,0.13,WeatherDisplay:10.37,2013-03-09 17:15:00,
2013-03-09 11:20:00,64.8,63.3,29.83,SSE,159,9.2,9.2,95,0.00,CLR,,0.13,WeatherDisplay:10.37,2013-03-09 17:20:00,
2013-03-09 11:25:00,64.8,63.3,29.83,SE,145,11.5,11.5,95,0.00,CLR,,0.13,WeatherDisplay:10.37,2013-03-09 17:25:00,
2013-03-09 11:30:00,64.8,63.3,29.83,SSE,150,11.5,11.5,95,0.00,CLR,,0.13,WeatherDisplay:10.37,2013-03-09 17:30:00,
2013-03-09 11:35:00,64.9,63.4,29.83,SSE,163,11.5,11.5,95,0.00,CLR,,0.13,WeatherDisplay:10.37,2013-03-09 17:35:00,
2013-03-09 11:40:00,65.0,63.8,29.83,South,178,4.6,4.6,96,0.00,CLR,,0.13,WeatherDisplay:10.37,2013-03-09 17:40:00,
2013-03-09 11:45:00,65.0,63.8,29.82,South,178,2.3,2.3,96,0.00,CLR,,0.13,WeatherDisplay:10.37,2013-03-09 17:45:00,
2013-03-09 11:50:00,65.1,63.9,29.82,South,177,5.8,5.8,96,0.00,CLR,,0.13,WeatherDisplay:10.37,2013-03-09 17:50:00,
2013-03-09 11:55:00,65.1,63.9,29.82,South,177,3.5,3.5,96,0.00,CLR,,0.13,WeatherDisplay:10.37,2013-03-09 17:55:00,
2013-03-09 12:00:00,65.2,63.7,29.82,South,177,3.5,0.0,95,0.00,CLR,,0.13,WeatherDisplay:10.37,2013-03-09 18:00:00,
2013-03-09 12:05:00,65.3,63.8,29.82,South,176,2.3,2.3,95,0.00,CLR,,0.14,WeatherDisplay:10.37,2013-03-09 18:05:00,
2013-03-09 12:10:00,65.4,63.9,29.82,South,176,3.5,3.5,95,0.01,RA,,0.14,WeatherDisplay:10.37,2013-03-09 18:10:00,
2013-03-09 12:15:00,65.5,64.0,29.81,South,176,2.3,2.3,95,0.01,RA,,0.14,WeatherDisplay:10.37,2013-03-09 18:15:00,
2013-03-09 12:20:00,65.6,64.1,29.81,South,175,4.6,0.0,95,0.01,CLR,,0.14,WeatherDisplay:10.37,2013-03-09 18:20:00,
2013-03-09 12:25:00,65.6,64.4,29.80,South,175,0.0,0.0,96,0.01,CLR,,0.14,WeatherDisplay:10.37,2013-03-09 18:25:00,
2013-03-09 12:30:00,65.8,64.6,29.80,South,175,0.0,0.0,96,0.01,CLR,,0.14,WeatherDisplay:10.37,2013-03-09 18:30:00,
2013-03-09 12:35:00,65.8,64.6,29.79,South,175,0.0,0.0,96,0.01,CLR,,0.14,WeatherDisplay:10.37,2013-03-09 18:35:00,
2013-03-09 12:40:00,65.9,64.7,29.79,South,175,3.5,3.5,96,0.01,CLR,,0.14,WeatherDisplay:10.37,2013-03-09 18:40:00,
2013-03-09 12:45:00,66.0,64.5,29.78,South,175,5.8,5.8,95,0.01,CLR,,0.14,WeatherDisplay:10.37,2013-03-09 18:45:00,
2013-03-09 12:50:00,66.2,64.7,29.78,South,173,5.8,5.8,95,0.01,CLR,,0.14,WeatherDisplay:10.37,2013-03-09 18:50:00,
2013-03-09 12:55:00,66.3,65.1,29.78,SSE,159,3.5,3.5,96,0.01,CLR,,0.14,WeatherDisplay:10.37,2013-03-09 18:55:00,
2013-03-09 13:00:00,66.4,65.2,29.77,SSE,158,8.1,8.1,96,0.01,CLR,,0.14,WeatherDisplay:10.37,2013-03-09 19:00:00,
2013-03-09 13:05:00,66.5,65.3,29.76,SSE,158,3.5,3.5,96,0.01,CLR,,0.14,WeatherDisplay:10.37,2013-03-09 19:05:00,
2013-03-09 13:10:00,66.7,65.5,29.76,SSE,158,0.0,0.0,96,0.00,CLR,,0.14,WeatherDisplay:10.37,2013-03-09 19:10:00,
2013-03-09 13:15:00,67.0,65.8,29.75,SSE,149,0.0,1.7,96,0.00,CLR,,0.14,WeatherDisplay:10.37,2013-03-09 19:15:00,
2013-03-09 13:20:00,67.4,66.2,29.75,SSE,148,4.6,4.6,96,0.00,CLR,,0.14,WeatherDisplay:10.37,2013-03-09 19:20:00,
2013-03-09 13:25:00,67.5,66.3,29.75,SSE,148,6.9,6.9,96,0.00,CLR,,0.14,WeatherDisplay:10.37,2013-03-09 19:25:00,
2013-03-09 13:30:00,67.7,66.5,29.74,SE,141,6.9,6.9,96,0.00,CLR,,0.14,WeatherDisplay:10.37,2013-03-09 19:30:00,
2013-03-09 13:35:00,67.9,66.7,29.74,SE,142,5.0,5.0,96,0.00,CLR,,0.14,WeatherDisplay:10.37,2013-03-09 19:35:00,
2013-03-09 13:40:00,68.3,67.1,29.73,SE,132,3.5,3.5,96,0.00,CLR,,0.14,WeatherDisplay:10.37,2013-03-09 19:40:00,
2013-03-09 13:45:00,68.1,66.9,29.73,SE,130,6.9,6.9,96,0.00,CLR,,0.14,WeatherDisplay:10.37,2013-03-09 19:45:00,
2013-03-09 13:50:00,68.0,66.8,29.74,SE,129,5.8,5.8,96,0.00,CLR,,0.14,WeatherDisplay:10.37,2013-03-09 19:50:00,
2013-03-09 13:55:00,68.2,67.0,29.73,SSE,148,11.0,11.0,96,0.00,CLR,,0.14,WeatherDisplay:10.37,2013-03-09 19:55:00,
2013-03-09 14:00:00,68.1,66.9,29.73,South,169,11.5,11.5,96,0.00,CLR,,0.14,WeatherDisplay:10.37,2013-03-09 20:00:00,
2013-03-09 14:05:00,68.1,66.6,29.73,SSE,157,11.5,11.5,95,0.00,CLR,,0.14,WeatherDisplay:10.37,2013-03-09 20:05:00,
2013-03-09 14:10:00,68.4,66.9,29.73,SSE,151,5.0,5.0,95,0.00,CLR,,0.14,WeatherDisplay:10.37,2013-03-09 20:10:00,
2013-03-09 14:15:00,68.6,67.1,29.73,SSE,148,5.8,5.8,95,0.00,CLR,,0.14,WeatherDisplay:10.37,2013-03-09 20:15:00,
2013-03-09 14:20:00,68.8,67.3,29.73,SE,142,6.9,6.9,95,0.00,CLR,,0.14,WeatherDisplay:10.37,2013-03-09 20:20:00,
2013-03-09 14:25:00,68.8,67.3,29.73,SE,146,6.9,6.9,95,0.00,CLR,,0.14,WeatherDisplay:10.37,2013-03-09 20:25:00,
2013-03-09 14:30:00,68.9,67.4,29.72,SE,144,10.0,10.0,95,0.00,CLR,,0.14,WeatherDisplay:10.37,2013-03-09 20:30:00,
2013-03-09 14:35:00,69.2,67.4,29.71,SE,146,6.9,6.9,94,0.00,CLR,,0.14,WeatherDisplay:10.37,2013-03-09 20:35:00,
2013-03-09 14:40:00,69.8,68.0,29.70,SE,144,12.7,12.7,94,0.00,CLR,,0.14,WeatherDisplay:10.37,2013-03-09 20:40:00,
2013-03-09 14:45:00,70.3,67.9,29.70,SSE,156,11.5,11.5,92,0.00,CLR,,0.14,WeatherDisplay:10.37,2013-03-09 20:45:00,
2013-03-09 14:50:00,71.1,68.0,29.69,South,170,10.4,10.4,90,0.00,CLR,,0.14,WeatherDisplay:10.37,2013-03-09 20:50:00,
2013-03-09 14:55:00,72.1,67.3,29.68,SE,132,21.9,21.9,85,0.00,CLR,,0.14,WeatherDisplay:10.37,2013-03-09 20:55:00,
2013-03-09 15:00:00,72.9,67.1,29.68,SSE,152,18.4,18.4,82,0.00,CLR,,0.14,WeatherDisplay:10.37,2013-03-09 21:00:00,
2013-03-09 15:05:00,73.4,66.9,29.68,SSE,153,18.4,18.4,80,0.00,CLR,,0.14,WeatherDisplay:10.37,2013-03-09 21:05:00,
2013-03-09 15:10:00,73.3,66.4,29.68,SSE,156,15.0,15.0,79,0.00,CLR,,0.14,WeatherDisplay:10.37,2013-03-09 21:10:00,
2013-03-09 15:15:00,73.3,66.0,29.68,SSE,147,16.1,16.1,78,0.00,CLR,,0.14,WeatherDisplay:10.37,2013-03-09 21:15:00,
2013-03-09 15:20:00,73.4,66.1,29.68,SSE,157,17.0,17.0,78,0.00,CLR,,0.14,WeatherDisplay:10.37,2013-03-09 21:20:00,
2013-03-09 15:25:00,73.3,66.0,29.68,SSE,161,21.9,21.9,78,0.00,CLR,,0.14,WeatherDisplay:10.37,2013-03-09 21:25:00,
2013-03-09 15:30:00,73.1,65.8,29.68,SSE,149,13.8,13.8,78,0.00,CLR,,0.14,WeatherDisplay:10.37,2013-03-09 21:30:00,
2013-03-09 15:35:00,72.9,65.6,29.68,SSE,155,11.5,11.5,78,0.00,CLR,,0.14,WeatherDisplay:10.37,2013-03-09 21:35:00,
2013-03-09 15:40:00,72.8,65.9,29.67,SSE,162,10.4,10.4,79,0.00,CLR,,0.14,WeatherDisplay:10.37,2013-03-09 21:40:00,
2013-03-09 15:45:00,72.7,65.8,29.68,SE,146,12.7,12.7,79,0.00,CLR,,0.14,WeatherDisplay:10.37,2013-03-09 21:45:00,
2013-03-09 15:50:00,72.5,65.6,29.67,SE,127,13.8,13.8,79,0.00,CLR,,0.14,WeatherDisplay:10.37,2013-03-09 21:50:00,
2013-03-09 15:55:00,72.3,65.8,29.67,SE,145,11.5,11.5,80,0.00,CLR,,0.14,WeatherDisplay:10.37,2013-03-09 21:55:00,
2013-03-09 16:00:00,72.1,65.6,29.67,SE,136,12.7,12.7,80,0.00,CLR,,0.14,WeatherDisplay:10.37,2013-03-09 22:00:00,
2013-03-09 16:05:00,72.0,65.5,29.67,SSE,167,16.1,16.1,80,0.00,CLR,,0.14,WeatherDisplay:10.37,2013-03-09 22:05:00,
2013-03-09 16:10:00,71.9,65.4,29.67,SE,140,11.5,11.5,80,0.00,CLR,,0.14,WeatherDisplay:10.37,2013-03-09 22:10:00,
2013-03-09 16:15:00,71.7,65.2,29.67,SE,134,15.0,15.0,80,0.00,CLR,,0.14,WeatherDisplay:10.37,2013-03-09 22:15:00,
2013-03-09 16:20:00,71.7,65.2,29.67,SE,140,12.7,12.7,80,0.00,CLR,,0.14,WeatherDisplay:10.37,2013-03-09 22:20:00,
2013-03-09 16:25:00,71.6,65.1,29.67,SE,130,16.1,16.1,80,0.00,CLR,,0.14,WeatherDisplay:10.37,2013-03-09 22:25:00,
2013-03-09 16:30:00,71.7,65.6,29.67,SE,140,11.5,11.5,81,0.00,CLR,,0.14,WeatherDisplay:10.37,2013-03-09 22:30:00,
2013-03-09 16:35:00,72.0,65.8,29.67,SE,139,12.0,12.0,81,0.00,CLR,,0.14,WeatherDisplay:10.37,2013-03-09 22:35:00,
2013-03-09 16:40:00,72.3,65.4,29.67,SSE,155,12.7,12.7,79,0.00,CLR,,0.14,WeatherDisplay:10.37,2013-03-09 22:40:00,
2013-03-09 16:45:00,72.5,65.6,29.66,SSE,159,17.3,17.3,79,0.00,CLR,,0.14,WeatherDisplay:10.37,2013-03-09 22:45:00,
2013-03-09 16:50:00,72.5,65.6,29.66,ESE,122,11.5,11.5,79,0.00,CLR,,0.14,WeatherDisplay:10.37,2013-03-09 22:50:00,
2013-03-09 16:55:00,72.4,65.5,29.66,ESE,119,12.7,12.7,79,0.00,CLR,,0.14,WeatherDisplay:10.37,2013-03-09 22:55:00,
2013-03-09 17:00:00,72.2,65.3,29.67,South,175,19.6,19.6,79,0.00,CLR,,0.14,WeatherDisplay:10.37,2013-03-09 23:00:00,
2013-03-09 17:05:00,72.2,65.3,29.67,SE,145,15.0,15.0,79,0.00,CLR,,0.14,WeatherDisplay:10.37,2013-03-09 23:05:00,
2013-03-09 17:10:00,72.1,65.2,29.67,SE,142,16.1,16.1,79,0.00,CLR,,0.14,WeatherDisplay:10.37,2013-03-09 23:10:00,
2013-03-09 17:15:00,72.0,65.1,29.66,ESE,123,18.4,18.4,79,0.00,CLR,,0.14,WeatherDisplay:10.37,2013-03-09 23:15:00,
2013-03-09 17:20:00,71.8,65.3,29.66,SE,144,18.4,18.4,80,0.00,CLR,,0.14,WeatherDisplay:10.37,2013-03-09 23:20:00,
2013-03-09 17:25:00,71.5,65.0,29.66,SE,132,20.7,20.7,80,0.00,CLR,,0.14,WeatherDisplay:10.37,2013-03-09 23:25:00,
2013-03-09 17:30:00,71.2,64.7,29.67,SE,134,23.0,23.0,80,0.00,CLR,,0.14,WeatherDisplay:10.37,2013-03-09 23:30:00,
2013-03-09 17:35:00,71.0,64.5,29.67,SSE,161,16.1,16.1,80,0.00,CLR,,0.14,WeatherDisplay:10.37,2013-03-09 23:35:00,
2013-03-09 17:40:00,70.9,64.8,29.67,SSE,160,17.3,17.3,81,0.00,CLR,,0.14,WeatherDisplay:10.37,2013-03-09 23:40:00,
2013-03-09 17:45:00,70.9,64.8,29.67,SE,143,10.4,10.4,81,0.00,CLR,,0.14,WeatherDisplay:10.37,2013-03-09 23:45:00,
2013-03-09 17:50:00,70.8,64.7,29.67,SSE,152,15.0,15.0,81,0.00,CLR,,0.14,WeatherDisplay:10.37,2013-03-09 23:50:00,
2013-03-09 17:59:00,70.4,64.6,29.67,SE,128,16.1,16.1,82,0.00,RA,,0.00,WeatherDisplay:10.37,2013-03-09 23:59:00,
2013-03-09 18:04:00,70.1,64.7,29.67,SE,130,12.7,12.7,83,0.00,CLR,,0.00,WeatherDisplay:10.37,2013-03-10 00:04:00,
2013-03-09 18:09:00,69.9,64.5,29.67,ESE,119,11.5,11.5,83,0.00,CLR,,0.00,WeatherDisplay:10.37,2013-03-10 00:09:00,
2013-03-09 18:14:00,69.6,64.5,29.67,SSE,148,19.6,19.6,84,0.00,CLR,,0.00,WeatherDisplay:10.37,2013-03-10 00:14:00,
2013-03-09 18:19:00,69.4,64.4,29.67,SE,140,11.5,11.5,84,0.00,CLR,,0.00,WeatherDisplay:10.37,2013-03-10 00:19:00,
2013-03-09 18:24:00,69.3,64.6,29.67,SE,133,11.5,11.5,85,0.00,CLR,,0.00,WeatherDisplay:10.37,2013-03-10 00:24:00,
2013-03-09 18:29:00,69.1,64.4,29.67,SSE,154,12.7,12.7,85,0.00,CLR,,0.00,WeatherDisplay:10.37,2013-03-10 00:29:00,
2013-03-09 18:34:00,69.0,64.3,29.67,SE,146,17.3,17.3,85,0.00,CLR,,0.00,WeatherDisplay:10.37,2013-03-10 00:34:00,
2013-03-09 18:39:00,68.9,64.2,29.67,SE,134,15.0,15.0,85,0.00,CLR,,0.00,WeatherDisplay:10.37,2013-03-10 00:39:00,
2013-03-09 18:44:00,68.8,64.1,29.67,SSE,148,24.2,24.2,85,0.00,CLR,,0.00,WeatherDisplay:10.37,2013-03-10 00:44:00,
2013-03-09 18:49:00,68.7,64.3,29.67,SE,138,19.6,19.6,86,0.00,CLR,,0.00,WeatherDisplay:10.37,2013-03-10 00:49:00,
2013-03-09 18:54:00,68.6,64.2,29.67,SE,136,6.9,7.7,86,0.00,CLR,,0.00,WeatherDisplay:10.37,2013-03-10 00:54:00,
2013-03-09 18:59:00,68.5,64.1,29.66,SE,140,12.7,12.7,86,0.00,CLR,,0.00,WeatherDisplay:10.37,2013-03-10 00:59:00,
2013-03-09 19:04:00,68.4,64.0,29.66,SE,136,16.1,16.1,86,0.00,CLR,,0.00,WeatherDisplay:10.37,2013-03-10 01:04:00,
2013-03-09 19:09:00,68.3,63.9,29.66,ESE,117,20.7,20.7,86,0.00,CLR,,0.00,WeatherDisplay:10.37,2013-03-10 01:09:00,
2013-03-09 19:14:00,68.2,64.2,29.66,SSE,150,6.9,6.9,87,0.00,CLR,,0.00,WeatherDisplay:10.37,2013-03-10 01:14:00,
2013-03-09 19:19:00,68.1,64.1,29.65,SSE,153,19.6,19.6,87,0.00,CLR,,0.00,WeatherDisplay:10.37,2013-03-10 01:19:00,
2013-03-09 19:24:00,68.0,64.0,29.65,SE,137,13.8,13.8,87,0.00,CLR,,0.00,WeatherDisplay:10.37,2013-03-10 01:24:00,
2013-03-09 19:29:00,68.0,64.0,29.65,SSE,149,12.7,12.7,87,0.00,CLR,,0.00,WeatherDisplay:10.37,2013-03-10 01:29:00,
2013-03-09 19:34:00,67.9,63.9,29.65,SE,128,19.6,19.6,87,0.00,CLR,,0.00,WeatherDisplay:10.37,2013-03-10 01:34:00,
2013-03-09 19:39:00,67.8,63.8,29.64,SSE,148,11.5,11.5,87,0.00,CLR,,0.00,WeatherDisplay:10.37,2013-03-10 01:39:00,
2013-03-09 19:44:00,67.8,63.8,29.65,SE,131,13.8,13.8,87,0.00,CLR,,0.00,WeatherDisplay:10.37,2013-03-10 01:44:00,
2013-03-09 19:49:00,67.8,63.8,29.64,SE,129,12.7,12.7,87,0.00,CLR,,0.00,WeatherDisplay:10.37,2013-03-10 01:49:00,
2013-03-09 19:54:00,67.7,63.7,29.65,SE,141,11.5,11.5,87,0.00,CLR,,0.00,WeatherDisplay:10.37,2013-03-10 01:54:00,
2013-03-09 19:59:00,67.7,63.7,29.64,SE,133,13.8,13.8,87,0.00,CLR,,0.00,WeatherDisplay:10.37,2013-03-10 01:59:00,
2013-03-09 20:04:00,67.7,63.7,29.64,ESE,118,15.0,15.6,87,0.00,CLR,,0.00,WeatherDisplay:10.37,2013-03-10 02:04:00,
2013-03-09 20:09:00,67.7,63.7,29.64,ESE,121,18.4,18.4,87,0.00,CLR,,0.00,WeatherDisplay:10.37,2013-03-10 02:09:00,
2013-03-09 20:15:00,67.7,63.7,29.65,SSE,159,16.1,16.1,87,0.00,CLR,,0.00,WeatherDisplay:10.37,2013-03-10 02:15:00,
2013-03-09 20:20:00,67.6,63.6,29.64,SE,146,17.3,17.3,87,0.00,CLR,,0.00,WeatherDisplay:10.37,2013-03-10 02:20:00,
2013-03-09 20:25:00,67.6,63.6,29.64,SSE,159,18.4,18.4,87,0.00,CLR,,0.00,WeatherDisplay:10.37,2013-03-10 02:25:00,
2013-03-09 20:30:00,67.6,63.6,29.64,SSE,153,12.7,12.7,87,0.00,CLR,,0.00,WeatherDisplay:10.37,2013-03-10 02:30:00,
2013-03-09 20:35:00,67.6,63.6,29.64,SSE,164,23.0,23.0,87,0.00,CLR,,0.00,WeatherDisplay:10.37,2013-03-10 02:35:00,
2013-03-09 20:40:00,67.6,63.6,29.64,SSE,159,19.6,19.6,87,0.00,CLR,,0.00,WeatherDisplay:10.37,2013-03-10 02:40:00,
2013-03-09 20:45:00,67.5,63.5,29.64,SSE,155,19.6,19.6,87,0.00,CLR,,0.00,WeatherDisplay:10.37,2013-03-10 02:45:00,
2013-03-09 20:50:00,67.5,63.5,29.63,SSE,148,19.6,19.6,87,0.00,CLR,,0.00,WeatherDisplay:10.37,2013-03-10 02:50:00,
2013-03-09 20:54:00,67.4,63.4,29.62,SSE,149,20.7,20.7,87,0.00,CLR,,0.00,WeatherDisplay:10.37,2013-03-10 02:54:00,
2013-03-09 20:59:00,67.3,63.3,29.61,SSE,156,20.7,20.7,87,0.00,CLR,,0.00,WeatherDisplay:10.37,2013-03-10 02:59:00,
2013-03-09 21:04:00,67.2,63.2,29.61,SSE,163,32.2,32.2,87,0.00,CLR,,0.00,WeatherDisplay:10.37,2013-03-10 03:04:00,
2013-03-09 21:09:00,67.2,63.2,29.61,SSE,160,18.0,18.0,87,0.00,CLR,,0.00,WeatherDisplay:10.37,2013-03-10 03:09:00,
2013-03-09 21:14:00,67.1,63.4,29.60,SSE,167,24.2,24.2,88,0.00,CLR,,0.00,WeatherDisplay:10.37,2013-03-10 03:14:00,
2013-03-09 21:19:00,67.1,63.4,29.60,SSE,159,18.4,18.4,88,0.00,CLR,,0.00,WeatherDisplay:10.37,2013-03-10 03:19:00,
2013-03-09 21:24:00,67.0,63.3,29.60,South,175,27.6,27.6,88,0.00,CLR,,0.00,WeatherDisplay:10.37,2013-03-10 03:24:00,
2013-03-09 21:29:00,67.0,63.3,29.60,SE,130,26.5,26.5,88,0.00,CLR,,0.00,WeatherDisplay:10.37,2013-03-10 03:29:00,
2013-03-09 21:34:00,67.0,63.3,29.60,SSE,156,20.7,20.7,88,0.00,CLR,,0.00,WeatherDisplay:10.37,2013-03-10 03:34:00,
2013-03-09 21:40:00,67.0,63.3,29.61,SE,142,23.0,23.0,88,0.00,CLR,,0.00,WeatherDisplay:10.37,2013-03-10 03:40:00,
2013-03-09 21:45:00,67.0,63.3,29.61,SE,143,19.6,19.6,88,0.00,CLR,,0.00,WeatherDisplay:10.37,2013-03-10 03:45:00,
2013-03-09 21:50:00,67.0,63.3,29.61,South,176,13.8,13.8,88,0.00,CLR,,0.00,WeatherDisplay:10.37,2013-03-10 03:50:00,
2013-03-09 21:55:00,66.9,63.2,29.61,SSE,157,13.8,13.8,88,0.00,CLR,,0.00,WeatherDisplay:10.37,2013-03-10 03:55:00,
2013-03-09 22:00:00,66.9,63.2,29.61,SSE,153,12.7,12.7,88,0.00,CLR,,0.00,WeatherDisplay:10.37,2013-03-10 04:00:00,
2013-03-09 22:05:00,66.9,63.2,29.60,SSE,165,25.3,25.3,88,0.00,CLR,,0.00,WeatherDisplay:10.37,2013-03-10 04:05:00,
2013-03-09 22:10:00,66.9,63.2,29.61,SSE,160,23.0,23.0,88,0.00,CLR,,0.00,WeatherDisplay:10.37,2013-03-10 04:10:00,
2013-03-09 22:15:00,66.9,63.2,29.62,SSE,147,13.8,13.8,88,0.00,CLR,,0.00,WeatherDisplay:10.37,2013-03-10 04:15:00,
2013-03-09 22:20:00,66.9,63.2,29.64,ESE,123,13.8,13.8,88,0.00,CLR,,0.00,WeatherDisplay:10.37,2013-03-10 04:20:00,
2013-03-09 22:25:00,66.9,63.2,29.65,SSE,148,11.5,11.5,88,0.00,CLR,,0.00,WeatherDisplay:10.37,2013-03-10 04:25:00,
2013-03-09 22:30:00,66.9,63.2,29.64,SE,142,10.4,10.4,88,0.00,CLR,,0.00,WeatherDisplay:10.37,2013-03-10 04:30:00,
2013-03-09 22:35:00,66.9,63.2,29.64,SE,138,10.4,10.4,88,0.00,CLR,,0.00,WeatherDisplay:10.37,2013-03-10 04:35:00,
2013-03-09 22:40:00,66.9,63.2,29.64,SE,137,12.0,12.0,88,0.00,CLR,,0.00,WeatherDisplay:10.37,2013-03-10 04:40:00,
2013-03-09 22:45:00,66.8,63.1,29.64,SE,145,9.2,9.2,88,0.00,CLR,,0.00,WeatherDisplay:10.37,2013-03-10 04:45:00,
2013-03-09 22:50:00,66.8,63.1,29.65,SSE,161,8.1,8.1,88,0.00,CLR,,0.00,WeatherDisplay:10.37,2013-03-10 04:50:00,
2013-03-09 22:55:00,66.8,63.5,29.65,SSE,163,11.5,11.5,89,0.00,CLR,,0.00,WeatherDisplay:10.37,2013-03-10 04:55:00,
2013-03-09 23:00:00,66.7,63.4,29.66,SSE,160,12.7,12.7,89,0.00,CLR,,0.00,WeatherDisplay:10.37,2013-03-10 05:00:00,
2013-03-09 23:05:00,66.6,63.3,29.65,South,173,10.4,10.4,89,0.00,CLR,,0.00,WeatherDisplay:10.37,2013-03-10 05:05:00,
2013-03-09 23:10:00,66.6,63.3,29.67,SE,146,8.0,8.0,89,0.00,CLR,,0.00,WeatherDisplay:10.37,2013-03-10 05:10:00,
2013-03-09 23:15:00,66.6,63.3,29.66,SE,126,13.8,13.8,89,0.00,CLR,,0.00,WeatherDisplay:10.37,2013-03-10 05:15:00,
2013-03-09 23:20:00,66.5,63.2,29.64,SSE,157,9.2,9.2,89,0.00,CLR,,0.00,WeatherDisplay:10.37,2013-03-10 05:20:00,
2013-03-09 23:25:00,66.4,63.4,29.66,SSE,165,11.5,11.5,90,0.00,CLR,,0.00,WeatherDisplay:10.37,2013-03-10 05:25:00,
2013-03-09 23:30:00,66.4,63.4,29.66,SSE,155,3.5,3.5,90,0.00,CLR,,0.00,WeatherDisplay:10.37,2013-03-10 05:30:00,
2013-03-09 23:35:00,66.4,63.4,29.65,SSE,149,5.8,6.5,90,0.00,CLR,,0.00,WeatherDisplay:10.37,2013-03-10 05:35:00,
2013-03-09 23:40:00,66.3,63.3,29.66,SE,136,9.2,9.2,90,0.00,CLR,,0.00,WeatherDisplay:10.37,2013-03-10 05:40:00,
2013-03-09 23:45:00,66.3,63.3,29.65,SSE,149,6.0,6.0,90,0.00,CLR,,0.00,WeatherDisplay:10.37,2013-03-10 05:45:00,
2013-03-09 23:50:00,66.3,63.3,29.66,SSE,151,10.4,10.4,90,0.00,CLR,,0.00,WeatherDisplay:10.37,2013-03-10 05:50:00,
2013-03-09 23:55:00,66.2,63.2,29.61,SE,128,11.5,11.5,90,0.00,CLR,,0.00,WeatherDisplay:10.37,2013-03-10 05:55:00,